Moab, UT

12:08 AM MDT on March 24, 2017 (GMT -0600)
Canyonlands

Weather History for KCNY - February, 2014

Change the Weather History Date:

Saturday, February 1, 2014

  Actual Average Record
Temperature  
Mean Temperature 27 °F 31 °F  
Max Temperature 37 °F 42 °F 65 °F (1986)
Min Temperature 17 °F 20 °F -3 °F (1951)
Degree Days  
Heating Degree Days 38 34  
Month to date heating degree days 38 34  
Since 1 July heating degree days 4081 3609  
Cooling Degree Days 0 0  
Month to date cooling degree days 0 0  
Year to date cooling degree days 0 0  
Moisture  
Dew Point 19 °F    
Average Humidity 68    
Maximum Humidity 100    
Minimum Humidity 35    
Precipitation  
Precipitation 0.00 in 0.02 in 0.24 in (2016)
Month to date precipitation 0.00 0.02  
Year to date precipitation 0.27 0.66  
Sea Level Pressure  
Sea Level Pressure 29.93 in    
Wind  
Wind Speed 4 mph (NW)    
Max Wind Speed 12 mph    
Max Gust Speed 13 mph    
Visibility 6 miles    
Events Fog    
T = Trace of Precipitation, MM = Missing Value Source: NWS Daily Summary

Daily Weather History Graph

Daily Weather History Graph

Search for Another Location

Airport or City:

Trip Planner

Search our weather history database for the weather conditions in past years. The results will help you decide how hot, cold, wet, or windy it might be!

Date:

Astronomy

Feb. 01, 2014 Rise Set
Actual Time 7:24 AM MST 5:40 PM MST
Civil Twilight 6:56 AM MST 6:08 PM MST
Nautical Twilight 6:25 AM MST 6:40 PM MST
Astronomical Twilight 5:53 AM MST 7:11 PM MST
Moon 8:18 AM MST (2/1) 8:17 PM MST (2/1)
Length of Visible Light 11h 12m
Length of Day
10h 15m
Waxing Crescent, 5% of the Moon is Illuminated
Feb 1
Waxing Crescent
Feb 6
First Quarter
Feb 14
Full
Feb 22
Last Quarter
Mar 1
New

Hourly Weather History & Observations

Time (MST) Temp. Windchill Dew Point Humidity Pressure Visibility Wind Dir Wind Speed Gust Speed Precip Events Conditions
12:53 AM 21.9 °F 15.7 °F 21.0 °F 96% 29.85 in 10.0 mi WNW 4.6 mph - N/A   Clear
1:51 AM 23.0 °F 14.7 °F 21.2 °F 93% 29.79 in 2.5 mi NNW 6.9 mph - N/A   Partly Cloudy
1:53 AM 23.0 °F 14.7 °F 21.9 °F 96% 29.85 in 1.8 mi NNW 6.9 mph - N/A   Partly Cloudy
2:01 AM 23.0 °F - 23.0 °F 100% 29.79 in 3.0 mi Calm Calm - N/A   Partly Cloudy
2:07 AM 21.0 °F 16.2 °F 21.0 °F 100% 29.79 in 1.2 mi Variable 3.5 mph - N/A   Mostly Cloudy
2:15 AM 21.9 °F 15.7 °F 21.9 °F 100% 29.79 in 0.2 mi North 4.6 mph - N/A Fog Light Freezing Fog
2:34 AM 26.1 °F 16.8 °F 25.0 °F 96% 29.79 in 1.8 mi NNW 9.2 mph - N/A   Overcast
2:36 AM 26.1 °F 17.6 °F 26.1 °F 100% 29.79 in 4.0 mi NNW 8.1 mph - N/A   Overcast
2:53 AM 26.1 °F 16.8 °F 26.1 °F 100% 29.85 in 10.0 mi NW 9.2 mph - N/A   Overcast
3:31 AM 26.1 °F 17.6 °F 25.0 °F 96% 29.80 in 10.0 mi West 8.1 mph - N/A   Overcast
3:53 AM 27.0 °F 18.7 °F 26.1 °F 96% 29.86 in 10.0 mi West 8.1 mph - N/A   Overcast
4:33 AM 25.0 °F 14.8 °F 23.0 °F 92% 29.81 in 0.8 mi NNW 10.4 mph - N/A   Overcast
4:46 AM 25.0 °F 14.2 °F 25.0 °F 100% 29.82 in 0.2 mi NNW 11.5 mph - N/A Fog Light Freezing Fog
4:53 AM 25.0 °F 14.2 °F 25.0 °F 100% 29.88 in 0.2 mi NNW 11.5 mph - N/A Fog Light Freezing Fog
5:53 AM 24.1 °F - 24.1 °F 100% 29.92 in 0.2 mi Calm Calm - N/A Fog Light Freezing Fog
6:51 AM 19.4 °F 12.8 °F 17.6 °F 93% 29.86 in 2.5 mi North 4.6 mph - N/A   Mostly Cloudy
6:53 AM 19.9 °F 14.9 °F 18.0 °F 92% 29.96 in 6.0 mi North 3.5 mph - N/A   Mostly Cloudy
7:07 AM 19.0 °F - 18.0 °F 96% 29.86 in 2.5 mi Calm Calm - N/A   Scattered Clouds
7:16 AM 18.0 °F - 15.1 °F 88% 29.87 in 5.0 mi Calm Calm - N/A   Partly Cloudy
7:27 AM 18.0 °F 12.7 °F 15.1 °F 88% 29.87 in 1.5 mi NNE 3.5 mph - N/A   Scattered Clouds
7:29 AM 18.0 °F 12.7 °F 15.1 °F 88% 29.87 in 0.8 mi North 3.5 mph - N/A   Mist
7:53 AM 19.0 °F 13.9 °F 16.0 °F 88% 29.99 in 0.2 mi NNE 3.5 mph - N/A Fog Light Freezing Fog
8:11 AM 21.0 °F - 19.0 °F 92% 29.88 in 3.0 mi Calm Calm - N/A   Mostly Cloudy
8:19 AM 21.9 °F - 19.0 °F 89% 29.89 in 10.0 mi Calm Calm - N/A   Overcast
8:53 AM 24.1 °F 18.2 °F 19.9 °F 84% 29.99 in 9.0 mi NNE 4.6 mph - N/A   Partly Cloudy
9:53 AM 26.1 °F 21.9 °F 25.0 °F 96% 30.01 in 10.0 mi NE 3.5 mph - N/A   Partly Cloudy
10:53 AM 30.0 °F - 21.0 °F 69% 30.01 in 10.0 mi Calm Calm - N/A   Clear
11:53 AM 32.0 °F - 19.9 °F 61% 30.01 in 10.0 mi Calm Calm - N/A   Clear
12:53 PM 33.1 °F 27.7 °F 17.1 °F 52% 30.00 in 10.0 mi West 5.8 mph - N/A   Clear
1:53 PM 35.1 °F - 18.0 °F 50% 29.98 in 10.0 mi Calm Calm - N/A   Clear
2:53 PM 34.0 °F 29.8 °F 17.1 °F 50% 29.98 in 10.0 mi NNW 4.6 mph - N/A   Clear
3:53 PM 37.0 °F 34.5 °F 14.0 °F 39% 29.99 in 10.0 mi North 3.5 mph - N/A   Clear
4:53 PM 36.0 °F - 10.9 °F 36% 30.01 in 10.0 mi Calm Calm - N/A   Clear
5:53 PM 28.9 °F 25.2 °F 16.0 °F 58% 30.05 in 10.0 mi WSW 3.5 mph - N/A   Clear
6:53 PM 27.0 °F 23.0 °F 16.0 °F 63% 30.09 in 10.0 mi WSW 3.5 mph - N/A   Clear
7:53 PM 21.0 °F 13.4 °F 15.1 °F 78% 30.13 in 10.0 mi SW 5.8 mph - N/A   Clear
8:53 PM 24.1 °F - 15.1 °F 69% 30.13 in 10.0 mi Calm Calm - N/A   Clear
9:53 PM 21.0 °F - 16.0 °F 81% 30.14 in 10.0 mi Calm Calm - N/A   Clear
10:53 PM 23.0 °F 14.7 °F 14.0 °F 68% 30.13 in 10.0 mi West 6.9 mph - N/A   Clear
11:53 PM 23.0 °F 15.8 °F 14.0 °F 68% 30.13 in 10.0 mi WSW 5.8 mph - N/A   Clear